Regional Weather Roundup
Issued by NWS

Home | Current Version | Previous Version | Graphics & Text | Print | Product List | Glossary On
Versions: 1 2 3 4 5 6 7 8 9 10 11 12 13 14 15 16 17 18 19 20 21 22 23 24 25 26 27 28 29 30 31 32 33 34 35 36 37 38 39 40 41 42 43 44 45 46
000
ASUS45 KBOU 251010
RWRCO

WEATHER ROUNDUP FOR COLORADO
NATIONAL WEATHER SERVICE DENVER/BOULDER CO
400 AM MDT WED APR 25 2018

NOTE: "FAIR" INDICATES FEW OR NO CLOUDS BELOW 12000 FEET WITH NO
SIGNIFICANT WEATHER AND/OR OBSTRUCTIONS TO VISIBILITY.

COZ001>005-013-030-031-251100-
...NORTHWEST COLORADO...

CITY           SKY/WX    TMP DP  RH WIND       PRES   REMARKS
CRAIG          FAIR      23  19  85 CALM      30.41R
HAYDEN         FAIR      26  21  81 NE5       30.41S WCI  20
MEEKER         FAIR      24  19  81 NE3       30.39F
RANGELY        FAIR      31  20  64 E9        30.39F WCI  23
RABBIT EARS PA FAIR      23  12  63 W6        30.39S WCI  16
STEAMBOAT SPGS FAIR      26  21  80 W3        30.40S
WALDEN         FAIR      14  10  85 SE7       30.41R WCI   4
$$

COZ006>008-011-251100-
...WEST CENTRAL VALLEYS...

CITY           SKY/WX    TMP DP  RH WIND       PRES   REMARKS
GRAND JUNCTION FAIR      40  17  39 E5        30.33S
MONTROSE       FAIR      32  19  58 S9        30.37R WCI  24
EAGLE          FAIR      28  22  78 E6        30.41S WCI  22
RIFLE          FAIR      31  24  75 CALM      30.38R
DELTA          FAIR      41  19  40 NE7       30.34S
NUCLA          FAIR      37  12  35 NE6       30.34R
$$

COZ017>023-064>068-251100-
...SOUTHWEST COLORADO...

CITY           SKY/WX    TMP DP  RH WIND       PRES   REMARKS
DURANGO        FAIR      41  18  39 SW3       30.19S
CORTEZ         FAIR      40  12  32 N3        30.22R
PAGOSA SPRINGS FAIR      38  15  37 CALM      30.25R
TELLURIDE      FAIR      31  19  61 E5        30.38S WCI  26
WOLF CREEK PAS FAIR      27   1  33 NW10G17   30.44S WCI  17
$$

COZ009-010-012-014-032>034-037-058>063-251100-
...CENTRAL COLORADO...

CITY           SKY/WX    TMP DP  RH WIND       PRES   REMARKS
ASPEN          FAIR      27  18  69 S6        30.37S WCI  20
BUENA VISTA    FAIR      25  23  91 CALM      30.37F
COPPER MTN     NOT AVBL
BERTHOUD PASS  FAIR      12   1  62 N18G29    30.36S WCI  -5
COTTONWOOD PAS FAIR      28  27  93 CALM      30.37S
GUNNISON       FAIR      26  15  63 N3        30.37R
GRANBY         FAIR      20  17  88 E5        30.41S WCI  14
KREMMLING      FAIR      28  23  80 CALM      30.42R
LEADVILLE      FAIR      19  16  88 E5        30.38R WCI  12
MONARCH PASS   FAIR      21   3  45 W14       30.50R WCI   8
SALIDA         FAIR      31  29  92 CALM      30.45S
SUNLIGHT       FAIR      21  14  73 E5        30.43F WCI  15
WILKERSON PASS FAIR     N/A N/A N/A NW10G18   30.37R
$$

COZ069>075-251100-
...SAN LUIS VALLEY/SANGRE DE CRISTO MOUNTAINS...

CITY           SKY/WX    TMP DP  RH WIND       PRES   REMARKS
ALAMOSA        NOT AVBL
DEL NORTE      FAIR      25  20  82 CALM      30.33
LA VETA PASS   FOG       21  19  93 N5        30.45S VSB 1/4 WCI  15
SAGUACHE       NOT AVBL
$$

COZ035-036-038>040-251100-
...NORTHERN COLORADO FRONT RANGE...

CITY           SKY/WX    TMP DP  RH WIND       PRES   REMARKS
DENVER INTL AP FAIR      33  25  72 S5        30.36F WCI  29
AURORA         PTCLDY    33  26  73 CALM      30.37F
FRONT RANGE AP FAIR      35  29  78 SW3       30.37F
ERIE MUNI ARPT FAIR      33  31  91 CALM      30.43S
BOULDER MUN AP FAIR      34  32  93 SW5       30.37S WCI  30
CENTENNIAL     MOCLDY    29  28  96 S5        30.36F WCI  24
BROOMFIELD     FAIR      32  32 100 W3        30.37S
FORT COLLINS   FAIR      33  27  78 SW5       30.38F WCI  29
LONGMONT       FAIR      34  31  90 W3        30.39F
$$

COZ041-046-047-076>085-087-088-251100-
...PIKES PEAK/PALMER DIVIDE AND SOUTHERN FOOTHILLS...

CITY           SKY/WX    TMP DP  RH WIND       PRES   REMARKS
COLO. SPRINGS  FAIR      30  25  81 CALM      30.37S
A. F. ACADEMY  FAIR      26  25  97 CALM      30.36R
SCHRIEVER AFB  NOT AVBL
CHEYENNE MTN   MOCLDY    29  29  99 SE6       30.30F FOG     WCI  23
ELLICOTT         N/A    N/A N/A N/A N3        30.36S
FALCON         CLOUDY    30  27  88 N7        30.37S WCI  23
FORT CARSON    CLOUDY    34  28  77 CALM      30.36F
LIMON          NOT AVBL
MONUMENT HILL  CLOUDY    28  27  93 NW6       30.37S WCI  22
CANON CITY     FAIR      34  34 100 SW3       30.38F FOG
WALSENBURG     NOT AVBL
TRINIDAD       MOCLDY    32  31  96 W3        30.38F
$$

COZ042>045-048>051-090-091-251100-
...NORTHEAST COLORADO...

CITY           SKY/WX    TMP DP  RH WIND       PRES   REMARKS
GREELEY ARPT   FAIR      27  24  89 NW3       30.39S
AKRON          FAIR      27  26  96 NW9       30.36F WCI  18
BURLINGTON     FAIR      31  27  85 N15       30.35S WCI  20
WRAY           FAIR      32  30  93 NW8       30.38S WCI  25
YUMA           FAIR      30  27  86 NW10      30.36F WCI  21
STERLING       NOT AVBL
HOLYOKE        FAIR      34  30  86 NW9       30.37F WCI  26
FORT MORGAN    FAIR      29  25  85 NW10      30.37F WCI  20
$$

COZ086-089-092>099-251100-
...SOUTHEAST COLORADO...

CITY           SKY/WX    TMP DP  RH WIND       PRES   REMARKS
PUEBLO         CLOUDY    37  35  92 NW6       30.39S
LA JUNTA       FAIR      34  32  92 W9        30.38F WCI  27
LAMAR          FAIR      34  31  88 W5        30.37R WCI  30
SPRINGFIELD      N/A     35  34  96 NW16G24   30.34S WCI  25
$$




USA.gov is the U.S. government's official web portal to all federal, state and local government web resources and services.